• In Hungary
  • List of Countries
  • For 7 days
  • Water Temperature
  • Satellite Maps
  • Weather Map
  • News
  • Weather Widgets
  • user-avatar
    Login

    Hourly Weather Marklowice

    Today, 11 December, Monday

    Time Temperature Precipitation Wind Pressure Humidity
    00:00 0°C° 0 mm 8 mps 722 mmHg 74%
    01:00 0°C° 0 mm 8 mps 722 mmHg 75%
    02:00 0°C° 0 mm 7 mps 722 mmHg 76%
    03:00 +2°C° 0 mm 7 mps 722 mmHg 78%
    04:00 +2°C° 0 mm 7 mps 722 mmHg 80%
    05:00 +2°C° 0.1 mm 6 mps 722 mmHg 81%
    06:00 +2°C° 0.1 mm 6 mps 722 mmHg 82%
    07:00 +2°C° 0.1 mm 5 mps 722 mmHg 84%
    08:00 +3°C° 0 mm 5 mps 722 mmHg 83%
    09:00 +3°C° 0 mm 5 mps 722 mmHg 82%
    10:00 +5°C° 0 mm 5 mps 722 mmHg 82%
    11:00 +6°C° 0 mm 5 mps 722 mmHg 82%
    12:00 +6°C° 0 mm 5 mps 722 mmHg 82%
    13:00 +7°C° 0 mm 6 mps 721 mmHg 82%
    14:00 +8°C° 0 mm 7 mps 721 mmHg 82%
    15:00 +7°C° 0 mm 8 mps 721 mmHg 82%
    16:00 +9°C° 0 mm 8 mps 721 mmHg 81%
    17:00 +8°C° 0 mm 9 mps 721 mmHg 80%
    18:00 +9°C° 0 mm 10 mps 721 mmHg 79%
    19:00 +9°C° 0 mm 10 mps 721 mmHg 78%
    20:00 +9°C° 0 mm 10 mps 721 mmHg 77%
    21:00 +9°C° 0 mm 10 mps 721 mmHg 76%
    22:00 +9°C° 0 mm 10 mps 721 mmHg 75%
    23:00 +9°C° 0 mm 10 mps 722 mmHg 75%

    Tomorrow, 12 December, Tuesday

    Time Temperature Precipitation Wind Pressure Humidity
    00:00 +9°C° 0 mm 10 mps 722 mmHg 74%
    01:00 +9°C° 0 mm 10 mps 722 mmHg 74%
    02:00 +9°C° 0 mm 10 mps 723 mmHg 74%
    03:00 +9°C° 0 mm 10 mps 723 mmHg 74%
    04:00 +8°C° 0 mm 10 mps 723 mmHg 74%
    05:00 +8°C° 0 mm 9 mps 724 mmHg 75%
    06:00 +10°C° 0 mm 9 mps 725 mmHg 75%
    07:00 +10°C° 0 mm 8 mps 725 mmHg 75%
    08:00 +9°C° 0.1 mm 7 mps 726 mmHg 76%
    09:00 +8°C° 0.1 mm 7 mps 727 mmHg 76%
    10:00 +8°C° 0.1 mm 6 mps 728 mmHg 76%
    11:00 +8°C° 0 mm 6 mps 729 mmHg 72%
    12:00 +8°C° 0 mm 6 mps 729 mmHg 68%
    13:00 +6°C° 0 mm 7 mps 730 mmHg 64%
    14:00 +7°C° 0 mm 6 mps 731 mmHg 65%
    15:00 +6°C° 0 mm 5 mps 732 mmHg 66%
    16:00 +5°C° 0 mm 4 mps 733 mmHg 68%
    17:00 +5°C° 0.3 mm 4 mps 734 mmHg 69%
    18:00 +4°C° 0.3 mm 4 mps 734 mmHg 70%
    19:00 +3°C° 0.3 mm 3 mps 735 mmHg 70%
    20:00 +3°C° 0.2 mm 3 mps 736 mmHg 70%
    21:00 +3°C° 0.2 mm 3 mps 737 mmHg 70%
    22:00 +2°C° 0.2 mm 3 mps 737 mmHg 70%
    23:00 +2°C° 0 mm 3 mps 738 mmHg 71%

    Day after tomorrow, 13 December, Wednesday

    Time Temperature Precipitation Wind Pressure Humidity
    00:00 +2°C° 0 mm 3 mps 738 mmHg 73%
    01:00 +2°C° 0 mm 3 mps 738 mmHg 74%
    02:00 +1°C° 0 mm 3 mps 739 mmHg 75%
    03:00 +1°C° 0 mm 3 mps 739 mmHg 77%
    04:00 0°C° 0 mm 3 mps 739 mmHg 78%
    05:00 +1°C° 0 mm 2 mps 739 mmHg 80%
    06:00 +1°C° 0 mm 2 mps 740 mmHg 82%
    07:00 -1°C° 0 mm 2 mps 740 mmHg 83%
    08:00 +1°C° 0 mm 2 mps 740 mmHg 81%
    09:00 0°C° 0 mm 3 mps 740 mmHg 78%
    10:00 +1°C° 0 mm 3 mps 741 mmHg 75%
    11:00 +1°C° 0 mm 3 mps 740 mmHg 72%
    12:00 +2°C° 0 mm 3 mps 740 mmHg 69%
    13:00 +1°C° 0 mm 4 mps 739 mmHg 66%
    14:00 +1°C° 0 mm 3 mps 739 mmHg 70%
    15:00 0°C° 0 mm 3 mps 739 mmHg 74%
    16:00 0°C° 0 mm 3 mps 738 mmHg 78%
    17:00 -1°C° 0 mm 3 mps 738 mmHg 78%
    18:00 -1°C° 0 mm 3 mps 737 mmHg 78%
    19:00 -1°C° 0 mm 3 mps 737 mmHg 78%
    20:00 -2°C° 0 mm 4 mps 736 mmHg 76%
    21:00 -2°C° 0 mm 4 mps 736 mmHg 74%
    22:00 -2°C° 0 mm 4 mps 735 mmHg 72%
    23:00 -2°C° 0 mm 5 mps 735 mmHg 72%

    14 December, Thursday

    Time Temperature Precipitation Wind Pressure Humidity
    00:00 -1°C° 0 mm 5 mps 734 mmHg 72%
    01:00 -1°C° 0 mm 5 mps 734 mmHg 72%
    02:00 -1°C° 0 mm 5 mps 733 mmHg 73%
    03:00 -1°C° 0 mm 5 mps 733 mmHg 74%
    04:00 -1°C° 0 mm 6 mps 732 mmHg 75%
    05:00 -1°C° 0 mm 6 mps 732 mmHg 77%
    06:00 0°C° 0 mm 5 mps 732 mmHg 78%
    07:00 -1°C° 0 mm 5 mps 731 mmHg 79%
    08:00 -1°C° 0 mm 6 mps 731 mmHg 77%
    09:00 +1°C° 0 mm 6 mps 731 mmHg 74%
    10:00 +2°C° 0 mm 7 mps 731 mmHg 71%
    11:00 +2°C° 0 mm 6 mps 731 mmHg 71%
    12:00 +2°C° 0 mm 6 mps 731 mmHg 72%
    13:00 +3°C° 0 mm 5 mps 731 mmHg 72%
    14:00 +2°C° 0 mm 5 mps 730 mmHg 75%
    15:00 +3°C° 0 mm 4 mps 730 mmHg 78%
    16:00 +1°C° 0 mm 4 mps 729 mmHg 80%
    17:00 +1°C° 0.1 mm 4 mps 729 mmHg 81%
    18:00 +1°C° 0.1 mm 4 mps 728 mmHg 82%
    19:00 +1°C° 0.1 mm 4 mps 728 mmHg 83%
    20:00 +1°C° 0.1 mm 5 mps 727 mmHg 81%
    21:00 +1°C° 0.1 mm 5 mps 726 mmHg 80%
    22:00 +2°C° 0.1 mm 5 mps 725 mmHg 79%
    23:00 +2°C° 0.1 mm 5 mps 725 mmHg 80%

    15 December, Friday

    Time Temperature Precipitation Wind Pressure Humidity
    00:00 +2°C° 0.1 mm 5 mps 724 mmHg 81%
    01:00 +3°C° 0.1 mm 5 mps 723 mmHg 82%
    02:00 +3°C° 0.1 mm 5 mps 723 mmHg 83%
    03:00 +3°C° 0.1 mm 5 mps 723 mmHg 84%
    04:00 +3°C° 0.1 mm 5 mps 723 mmHg 84%
    05:00 +3°C° 0.4 mm 5 mps 724 mmHg 83%
    06:00 +3°C° 0.4 mm 4 mps 725 mmHg 81%
    07:00 +3°C° 0.4 mm 4 mps 726 mmHg 79%
    08:00 +1°C° 0 mm 4 mps 727 mmHg 75%
    09:00 +1°C° 0 mm 4 mps 728 mmHg 72%
    10:00 +1°C° 0 mm 4 mps 729 mmHg 68%
    11:00 +1°C° 0 mm 4 mps 729 mmHg 65%
    12:00 +3°C° 0 mm 4 mps 729 mmHg 63%
    13:00 +3°C° 0 mm 4 mps 730 mmHg 60%
    14:00 +1°C° 0 mm 4 mps 730 mmHg 64%
    15:00 +2°C° 0 mm 3 mps 730 mmHg 68%
    16:00 +1°C° 0 mm 3 mps 730 mmHg 72%
    17:00 +1°C° 0 mm 3 mps 730 mmHg 73%
    18:00 +2°C° 0 mm 2 mps 730 mmHg 75%
    19:00 +2°C° 0 mm 2 mps 730 mmHg 77%
    20:00 +2°C° 0 mm 2 mps 730 mmHg 77%
    21:00 +1°C° 0 mm 2 mps 730 mmHg 77%
    22:00 +2°C° 0 mm 1 mps 730 mmHg 78%
    23:00 +2°C° 0 mm 1 mps 730 mmHg 78%

    16 December, Saturday

    Time Temperature Precipitation Wind Pressure Humidity
    00:00 +2°C° 0 mm 1 mps 730 mmHg 78%
    01:00 +1°C° 0 mm 0 mps 730 mmHg 78%
    02:00 +1°C° 0.1 mm 0 mps 730 mmHg 79%
    03:00 +2°C° 0.1 mm 1 mps 730 mmHg 79%
    04:00 +2°C° 0.1 mm 1 mps 730 mmHg 80%
    05:00 +1°C° 0 mm 1 mps 730 mmHg 81%
    06:00 +1°C° 0 mm 1 mps 730 mmHg 83%
    07:00 +1°C° 0 mm 1 mps 730 mmHg 84%
    08:00 +1°C° 0 mm 1 mps 730 mmHg 81%
    09:00 +2°C° 0 mm 1 mps 731 mmHg 79%
    10:00 +2°C° 0 mm 1 mps 731 mmHg 76%
    11:00 +3°C° 0 mm 1 mps 731 mmHg 73%
    12:00 +3°C° 0 mm 1 mps 731 mmHg 70%
    13:00 +4°C° 0 mm 1 mps 731 mmHg 68%
    14:00 +3°C° 0 mm 1 mps 731 mmHg 72%
    15:00 +2°C° 0 mm 1 mps 732 mmHg 76%
    16:00 +1°C° 0 mm 1 mps 732 mmHg 79%
    17:00 +1°C° 0 mm 1 mps 733 mmHg 80%
    18:00 +1°C° 0 mm 1 mps 733 mmHg 80%
    19:00 +1°C° 0 mm 1 mps 734 mmHg 80%
    20:00 +1°C° 0 mm 1 mps 734 mmHg 81%
    21:00 +1°C° 0 mm 1 mps 734 mmHg 81%
    22:00 +1°C° 0 mm 1 mps 735 mmHg 82%
    23:00 +1°C° 0 mm 1 mps 735 mmHg 83%
    Show more